Regional Weather Roundup
Issued by NWS Upton, NY

Home | Current Version | Previous Version | Text Only | Print | Product List | Glossary On
Versions: 1 2 3 4 5 6 7 8 9 10 11 12 13 14 15 16 17 18 19 20 21 22 23 24 25 26 27 28 29 30 31 32 33 34 35 36 37 38 39 40 41 42 43 44 45 46 47 48 49 50
000
ASUS41 KOKX 201005
RWROKX

REGIONAL WEATHER ROUNDUP
NATIONAL WEATHER SERVICE NEW YORK NY
600 AM EDT MON OCT 20 2014

NOTE: "FAIR" INDICATES FEW OR NO CLOUDS BELOW 12,000 FEET WITH NO
SIGNIFICANT WEATHER AND/OR OBSTRUCTIONS TO VISIBILITY.

NYZ071-072-176-178-NJZ106-104-201100-
NEW YORK CITY METRO AREA


CITY           SKY/WX    TMP DP  RH WIND       PRES   REMARKS
CENTRAL PARK   PTCLDY    42  29  59 CALM      30.12R
LAGUARDIA APRT MOCLDY    44  29  55 W7        30.10R
KENNEDY INTL   MOCLDY    44  30  57 W10       30.11R
NEWARK/LIBERTY MOCLDY    40  30  67 SW5       30.10S
BRNX BOT. GARD   N/A    N/A N/A N/A W5        30.10S
TETERBORO      PTCLDY    39  29  67 CALM      30.09S
$$

NYZ177-179-078>081-201100-
LONG ISLAND NEW YORK

CITY           SKY/WX    TMP DP  RH WIND       PRES   REMARKS
FARMINGDALE    PTCLDY    38  30  73 CALM      30.10R
ISLIP          MOCLDY    36  30  79 CALM      30.07S
SHIRLEY        NOT AVBL
WESTHAMPTON    PTCLDY    29  24  82 CALM      30.10R
MONTAUK POINT    N/A     44  30  57 NW8       30.09R
$$

NYZ052-065-067-201100-
HUDSON VALLEY

CITY           SKY/WX    TMP DP  RH WIND       PRES   REMARKS
WHITE PLAINS   PTCLDY    38  30  73 SW5       30.07R WCI  34
NEWBURGH       CLEAR     36  28  75 CALM      30.07S
MONTGOMERY     PTCLDY    34  29  82 SW6       30.07R WCI  29
POUGHKEEPSIE   CLEAR     32  29  88 CALM      30.08R
ALBANY         PTCLDY    31  27  85 SE3       30.05S
$$

NJZ001-105-106-008-010-013-015-019>022-104-201100-
NEW JERSEY

CITY           SKY/WX    TMP DP  RH WIND       PRES   REMARKS
NEWARK/LIBERTY MOCLDY    40  30  67 SW5       30.10S
TETERBORO      PTCLDY    39  29  67 CALM      30.09S
CALDWELL       PTCLDY    36  29  75 CALM      30.10S
MORRISTOWN     PTCLDY    34  32  93 CALM      30.10S
SOMERVILLE     PTCLDY    31  29  92 CALM      30.10R
SUSSEX         PTCLDY    32  29  88 CALM      30.08S
ANDOVER          N/A     32  31  96 SW3       30.09R
TRENTON        CLEAR     33  30  88 SW5       30.11R WCI  29
MILLVILLE      CLEAR     32  31  96 CALM      30.13R
ATLANTIC CITY  CLEAR     32  29  88 CALM      30.13S
WRIGHTSTOWN    CLEAR     32  29  88 SE2       30.10R
TOMS RIVER     PTCLDY    28  25  86 CALM      30.12S
BELMAR         PTCLDY    37  27  65 SW6       30.11R WCI  33
$$

PAZ047>061-062-071-201100-
EASTERN PENNSYLVANIA

CITY           SKY/WX    TMP DP  RH WIND       PRES   REMARKS
PHILADELPHIA   PTCLDY    42  32  67 S5        30.13R
ALLENTOWN      PTCLDY    34  29  82 CALM      30.09S
SCRANTON       MOCLDY    34  29  82 E5        30.05F WCI  30
$$

CTZ002-004>006-009-010-012-RIZ004-006-007-MAZ004-011-015-201100-
SOUTHERN NEW ENGLAND
 IN CT

CITY           SKY/WX    TMP DP  RH WIND       PRES   REMARKS
BRADLEY INTL   PTCLDY    36  28  73 SW5       30.04S WCI  32
HARTFORD       CLEAR     36  29  75 S5        30.07R WCI  32
DANBURY        PTCLDY    31  28  89 SW3       30.08R
WTRBRY/OXFORD  CLEAR     32  25  74 CALM      30.06S
BRIDGEPORT     PTCLDY    38  30  73 W6        30.08S WCI  33
MERIDEN        CLEAR     29  27  92 CALM      30.08S
NEW HAVEN      CLEAR     43  29  57 VRB3      30.08S
CHESTER        FAIR      36  30  80 W6        30.07R WCI  31
GROTON         PTCLDY    35  29  78 NW3       30.08R
WILLIMANTIC    PTCLDY    31  28  89 CALM      30.07R

 IN RI

CITY           SKY/WX    TMP DP  RH WIND       PRES   REMARKS
PROVIDENCE     CLEAR     34  27  75 W7        30.06R WCI  28
BLOCK ISLAND   PTCLDY    43  25  49 NW5       30.06R
WESTERLY       CLEAR     34  28  79 CALM      30.08R

 IN MA

CITY           SKY/WX    TMP DP  RH WIND       PRES   REMARKS
BOSTON         MOCLDY    40  26  57 W7        30.03R
WORCESTER      PTCLDY    32  25  75 SW3       29.99R
WESTFIELD      PTCLDY    31  28  89 S3        30.04R
PROVINCETOWN   CLEAR     43  28  56 NW13G21   30.01R
NANTUCKET      CLEAR     42  27  55 NW10      30.02R
$$

ANZ330-335-338-340-345-350-353-355-201100-
COASTAL MARINE OBSERVATIONS


STATION/POSITION TIME  SKY/WX   TEMP    WIND        PRES    VSBY  WAVE
                                AIR SEA DIR/SP/G                  HT/PER
                 (UTC)          (F)     (DEG/KT/KT) (MB)    (MI)  (FT/S)
NY HARB ENTRANCE NOT AVBL
4S FIRE IS       1000               63                N/A           2/11
20S FIRE ISLAND  1000            48 64  320/ 10/ 16 1019.2          3/11
23SW MTP         1000                                 N/A           3/11
HUDSON CANYON    1000            51 66  310/ 16/ 19 1018.5          5/ 6
EXECUTION ROCKS  1000            46 64  280/  8/ 14   N/A
WESTERN LI SOUND 1000            46     270/ 12/ 14   N/A           1
CENTRAL LI SOUND 0900            46 64  300/ 12/ 16   N/A           1
EASTERN LI SOUND 0900            45 64  290/ 10/ 14   N/A
ROBBINS REEF     1000            43     280/  7/  8 1018.1
$$


>>>>>>>>>>>>>>>>>>>>>>>>>>>> KEY <<<<<<<<<<<<<<<<<<<<<<<<<<<
>                                                          <
>     SKY/WX - SKY CONDITION/PRESENT WEATHER               <
>     TMP    - TEMPERATURE IN FAHRENHEIT                   <
>     DP     - DEWPOINT IN FAHRENHEIT                      <
>     RH     - RELATIVE HUMIDITY IN PERCENT                <
>     WIND   - DIRECTION AND SPEED IN MPH                  <
>     PRES   - MEAN SEA LEVEL PRESSURE IN INCHES OF HG     <
>     WCI    - WIND CHILL INDEX                            <
>     VSB    - VISIBILITY IN MILES                         <
>     HX     - HEAT INDEX                                  <
>     TC     - TEMPERATURE IN CELSIUS                      <
>     VRB    - VARIABLE WIND DIRECTION                     <
>                                                          <
>>>>>>>>>>>>>>>>>>>>>>>>>>>> KEY <<<<<<<<<<<<<<<<<<<<<<<<<<<





USA.gov is the U.S. government's official web portal to all federal, state and local government web resources and services.